Location: Marcé
(47.5801°N, 0.3280°W)
Time: 17:47:22
(UTC+01:00)

S-56A Canister/Altair - Pass Details

Date: 30 November 2021
Orbit: 633 x 2499 km, 38.9° (Epoch: 18 January)

Event Time Altitude Azimuth Distance (km) Brightness Sun altitude
Exits shadow 06:33:29 17° 226° (SW) 1,682 9.0 -18.5°
Maximum altitude 06:34:53 20° 202° (SSW) 1,532 9.0 -18.3°
Drops below altitude 10° 06:38:07 10° 155° (SSE) 2,008 10.2 -17.8°
Sets 06:40:53 0° 137° (SE) 2,926 11.5 -17.3°
